Voltar ao catálogo

STARLINK-30541

AtivoComunicaçõesVLEO
NORAD 58057·PAYLOAD·🇺🇸 United States

Lançado Oct 13, 2023 de Cape Canaveral Space Force Station

Loading…

Próximas Passagens (próximas 24 horas)

TLE

AtualizadoSource: CelesTrak SupGP

Época: Sep 14, 2026, 21:31 UTC

1 58057C 23158G   26257.89701389  .00058193  00000+0  21084-2 0  2570
2 58057  43.0041  38.2945 0001729 277.9505 284.9397 15.27539540    18

Acompanhe STARLINK-30541 em tempo real com AllMySat

Download on the App Store